Retour au catalogue

SL-12 DEB

ActifHEO
NORAD 25805·DEBRIS·🇷🇺 Russia

Lancé Sep 16, 1987 depuis Baikonur Cosmodrome

Loading…

Prochains Passages (prochaines 24 heures)

TLE

FraisSource: Space-Track

Époque: Sep 9, 2026, 14:41 UTC

1 25805U 87079Q   26252.61245443  .00010870  00000-0  63751-2 0  9997
2 25805  64.8413 272.2073 5263760  33.1521 350.9647  5.08468033 57592

Suivez SL-12 DEB en temps réel avec AllMySat

Download on the App Store